EW5980 Weather Reports


Display with metric or nautical units.
time (UTC)temp
F
wind
direction
speed
MPH
gust
MPH
rain 1hr
in
rain 24hr
in
rain mn
in
humidity
%
barometer
mb
20260506001542 77 0.0 0.0 0.00 0.00 0.00 71 1009.7
20260506000041 77 0.0 0.0 0.00 0.00 0.00 71 1009.7
20260505234548 78 0.0 0.0 0.00 0.00 0.00 70 1009.8
20260505233045 78 0.0 0.0 0.00 0.00 0.00 70 1009.9
20260505231551 78 0.0 0.0 0.00 0.00 0.00 70 1009.9
20260505230055 78 0.0 0.0 0.00 0.00 0.00 69 1009.9
20260505224543 78 0.0 0.0 0.00 0.00 0.00 69 1009.8
20260505223050 78 0.0 0.0 0.00 0.00 0.00 69 1009.9
20260505221542 78 0.0 0.0 0.00 0.00 0.00 69 1009.9
20260505220039 78 0.0 0.0 0.00 0.00 0.00 69 1010.3
20260505214546 77 0.0 0.0 0.00 0.00 0.00 69 1010.4
20260505213052 77 0.0 0.0 0.00 0.00 0.00 69 1010.8
20260505211548 78 0.0 0.0 0.00 0.00 0.00 70 1010.7
20260505210043 77 0.0 0.0 0.00 0.00 0.00 69 1010.9
20260505204543 77 0.0 0.0 0.00 0.00 0.00 69 1010.8
20260505203047 77 0.0 0.0 0.00 0.00 0.00 69 1010.8
20260505201547 77 0.0 0.0 0.00 0.00 0.00 69 1011.1
20260505200044 78 0.0 0.0 0.00 0.00 0.00 68 1011.2
20260505194545 78 0.0 0.0 0.00 0.00 0.00 67 1011.2
20260505193040 78 0.0 0.0 0.00 0.00 0.00 66 1011.2
20260505191606 78 0.0 0.0 0.00 0.00 0.00 65 1011.3
20260505190042 78 0.0 0.0 0.00 0.00 0.00 65 1011.6
20260505184543 78 0.0 0.0 0.00 0.00 0.00 63 1011.7
20260505183042 78 0.0 0.0 0.00 0.00 0.00 65 1011.8
20260505181548 78 0.0 0.0 0.00 0.00 0.00 63 1011.9
20260505180059 78 0.0 0.0 0.00 0.00 0.00 64 1011.9
20260505174552 77 0.0 0.0 0.00 0.00 0.00 65 1012.0
20260505173046 77 0.0 0.0 0.00 0.00 0.00 64 1012.0
20260505171547 76 0.0 0.0 0.00 0.00 0.00 65 1012.1
20260505170043 76 0.0 0.0 0.00 0.00 0.00 65 1012.4
20260505164542 75 0.0 0.0 0.00 0.00 0.00 67 1012.4
20260505163046 75 0.0 0.0 0.00 0.00 0.00 67 1012.6
20260505161552 75 0.0 0.0 0.00 0.00 0.00 66 1012.5
20260505153040 74 0.0 0.0 0.00 0.00 0.00 68 1012.6
20260505151539 73 0.0 0.0 0.00 0.00 0.00 69 1012.6
20260505124542 62 0.0 0.0 0.00 0.00 0.00 62 1012.9
20260505123040 62 0.0 0.0 0.00 0.00 0.00 57 1012.8
20260505121546 61 0.0 0.0 0.00 0.00 0.00 56 1012.7
20260505120042 60 0.0 0.0 0.00 0.00 0.00 55 1012.5
20260505114542 60 0.0 0.0 0.00 0.00 0.00 53 1012.2
20260505113048 59 0.0 0.0 0.00 0.00 0.00 53 1012.1
20260505111541 59 0.0 0.0 0.00 0.00 0.00 57 1012.2
20260505101559 59 0.0 0.0 0.00 0.00 0.00 65 1012.4
20260505100057 60 0.0 0.0 0.00 0.00 0.00 67 1012.4
20260505094539 60 0.0 0.0 0.00 0.00 0.00 69 1012.4
20260505093053 60 0.0 0.0 0.00 0.00 0.00 70 1012.5
20260505091545 61 0.0 0.0 0.00 0.00 0.00 71 1012.5
20260505090045 61 0.0 0.0 0.00 0.00 0.00 72 1012.4
20260505084543 61 0.0 0.0 0.00 0.00 0.00 72 1012.4
20260505083045 61 0.0 0.0 0.00 0.00 0.00 72 1012.3
20260505081558 62 0.0 0.0 0.00 0.00 0.00 72 1012.4
20260505080053 62 0.0 0.0 0.00 0.00 0.00 72 1012.3
20260505074543 62 0.0 0.0 0.00 0.00 0.00 73 1012.3
20260505073048 62 0.0 0.0 0.00 0.00 0.00 72 1012.6
20260505071550 62 0.0 0.0 0.00 0.00 0.00 72 1012.7
20260505070045 62 0.0 0.0 0.00 0.00 0.00 72 1013.1
20260505064542 63 0.0 0.0 0.00 0.00 0.00 72 1013.3
20260505063048 63 0.0 0.0 0.00 0.00 0.00 72 1013.4
20260505061546 64 0.0 0.0 0.00 0.00 0.00 71 1013.5
20260505060042 64 0.0 0.0 0.00 0.00 0.00 70 1013.4
20260505054545 64 0.0 0.0 0.00 0.00 0.00 70 1013.4
20260505053048 65 0.0 0.0 0.00 0.00 0.00 69 1013.4
20260505051545 65 0.0 0.0 0.00 0.00 0.00 68 1013.6
20260505041546 65 0.0 0.0 0.00 0.00 0.00 68 1013.6
20260505040042 65 0.0 0.0 0.00 0.00 0.00 68 1013.5
20260505034547 65 0.0 0.0 0.00 0.00 0.00 68 1013.4
20260505033041 66 0.0 0.0 0.00 0.00 0.00 67 1013.2
20260505031544 66 0.0 0.0 0.00 0.00 0.00 67 1013.2
20260505030045 66 0.0 0.0 0.00 0.00 0.00 67 1013.1
20260505024542 67 0.0 0.0 0.00 0.00 0.00 65 1013.0
20260505023049 68 0.0 0.0 0.00 0.00 0.00 63 1012.9
20260505021544 68 0.0 0.0 0.00 0.00 0.00 62 1012.7
20260505020049 69 0.0 0.0 0.00 0.00 0.00 61 1012.6
20260505014551 69 0.0 0.0 0.00 0.00 0.00 60 1012.5
20260505013046 70 0.0 0.0 0.00 0.00 0.00 58 1012.2
20260505011544 71 0.0 0.0 0.00 0.00 0.00 55 1012.3
20260505010105 72 0.0 0.0 0.00 0.00 0.00 53 1012.3
20260505004543 73 0.0 0.0 0.00 0.00 0.00 51 1012.1
20260505003044 74 0.0 0.0 0.00 0.00 0.00 50 1012.2